Back to catalog

TIANMU-1 16

AliveWeatherSSO
NORAD 58701·PAYLOAD·🇨🇳 China

Launched Jan 5, 2024 from Jiuquan Satellite Launch Center

Loading…

Next Passes (next 24 hours)

TLE

FreshSource: Space-Track

Epoch: Sep 14, 2026, 14:12 UTC

1 58701U 24004B   26257.59234028  .00004134  00000-0  15617-3 0  9991
2 58701  97.4621  83.0058 0006902  47.0157 313.1660 15.27548920149420

Track TIANMU-1 16 in real time with AllMySat

Download on the App Store